This demonstration page uses our WeatherBlox Daily Observations layout. Learn more.

Left ArrowRight Arrow

Hourly Observations for October 29, 2016

Temp ( °F °C ) Dew Point ( °F °C ) Humidity (%) Winds ( mph kmh ) Pressure ( in mb ) Visibility ( mi km ) Precip ( " mm )
12:17 am 00:17 Clear 54 12 46 8 77 77 S 8 13 30.15 1021 10 16.0934 N/A
12:37 am 00:37 Clear 54 12 46 8 77 77 S 8 13 30.15 1021 10 16.0934 N/A
12:56 am 00:56 Clear 54 12 46 8 77 77 S 8 13 30.12 1020 10 16.0934 N/A
1:17 am 01:17 Clear 54 12 46 8 77 77 S 8 13 30.12 1020 10 16.0934 N/A
1:37 am 01:37 Clear 54 12 48 9 82 82 S 8 13 30.12 1020 10 16.0934 N/A
1:56 am 01:56 Clear 54 12 48 9 82 82 S 8 13 30.12 1020 10 16.0934 N/A
2:17 am 02:17 Clear 54 12 48 9 82 82 S 8 13 30.12 1020 10 16.0934 N/A
2:37 am 02:37 Clear 54 12 48 9 82 82 S 8 13 30.12 1020 10 16.0934 N/A
2:57 am 02:57 Clear 54 12 48 9 82 82 S 8 13 30.12 1020 10 16.0934 N/A
3:17 am 03:17 Clear 54 12 48 9 82 82 S 7 11 30.12 1020 10 16.0934 N/A
3:37 am 03:37 Clear 54 12 48 9 82 82 S 6 9 30.12 1020 10 16.0934 N/A
3:57 am 03:57 Clear 54 12 48 9 82 82 SSW 7 11 30.12 1020 10 16.0934 N/A
4:17 am 04:17 Clear 54 12 48 9 82 82 S 6 9 30.12 1020 10 16.0934 N/A
4:37 am 04:37 Clear 54 12 48 9 82 82 S 8 13 30.12 1020 10 16.0934 N/A
4:57 am 04:57 Partly Cloudy 54 12 48 9 82 82 S 7 11 30.12 1020 10 16.0934 N/A
5:17 am 05:17 Mostly Cloudy 54 12 48 9 82 82 S 7 11 30.09 1019 10 16.0934 N/A
5:37 am 05:37 Partly Cloudy 54 12 48 9 82 82 S 7 11 30.09 1019 10 16.0934 N/A
5:57 am 05:57 Partly Cloudy 54 12 48 9 82 82 S 7 11 30.09 1019 10 16.0934 N/A
6:17 am 06:17 Cloudy 54 12 48 9 82 82 S 7 11 30.09 1019 10 16.0934 N/A
6:37 am 06:37 Cloudy 55 13 50 10 82 82 S 7 11 30.06 1018 10 16.0934 N/A
6:57 am 06:57 Cloudy 55 13 50 10 82 82 S 7 11 30.06 1018 10 16.0934 N/A
7:17 am 07:17 Mostly Cloudy 55 13 50 10 82 82 S 7 11 30.06 1018 10 16.0934 N/A
7:36 am 07:36 Mostly Cloudy 55 13 52 11 88 88 S 7 11 30.06 1018 10 16.0934 N/A
7:57 am 07:57 Partly Cloudy 55 13 52 11 88 88 SSW 7 11 30.06 1018 10 16.0934 N/A
8:17 am 08:17 Sunny 55 13 52 11 88 88 SSW 7 11 30.06 1018 10 16.0934 N/A
8:36 am 08:36 Sunny 55 13 52 11 88 88 S 7 11 30.06 1018 10 16.0934 N/A
8:57 am 08:57 Sunny 55 13 52 11 88 88 S 8 13 30.06 1018 10 16.0934 N/A
9:17 am 09:17 Partly Cloudy 57 14 54 12 88 88 SSW 8 13 30.06 1018 10 16.0934 N/A
9:36 am 09:36 Mostly Cloudy 59 15 54 12 82 82 S 8 13 30.06 1018 10 16.0934 N/A
9:57 am 09:57 Cloudy 61 16 55 13 83 83 SSW 9 15 30.06 1018 10 16.0934 N/A
10:17 am 10:17 Cloudy 63 17 55 13 77 77 SSW 7 11 30.06 1018 10 16.0934 N/A
10:36 am 10:36 Cloudy 66 19 57 14 73 73 SW 9 15 30.06 1018 10 16.0934 N/A
10:57 am 10:57 Cloudy 66 19 57 14 73 73 SW 14 22 30.06 1018 10 16.0934 N/A
11:17 am 11:17 Cloudy 68 20 57 14 69 69 SW 12 19 30.06 1018 10 16.0934 N/A
11:36 am 11:36 Cloudy 70 21 57 14 64 64 WSW 12 19 30.06 1018 10 16.0934 N/A
11:57 am 11:57 Cloudy 72 22 57 14 61 61 WSW 14 22 30.03 1017 10 16.0934 N/A
12:17 pm 12:17 Cloudy 72 22 57 14 61 61 WSW 17 28 30.03 1017 10 16.0934 N/A
12:36 pm 12:36 Cloudy 73 23 57 14 57 57 WSW 10 17 30.03 1017 10 16.0934 N/A
12:57 pm 12:57 Mostly Cloudy 77 25 57 14 51 51 SW 16 26 30.03 1017 10 16.0934 N/A
1:17 pm 13:17 Partly Cloudy 75 24 57 14 54 54 SW 20 31 30 1016 10 16.0934 N/A
1:37 pm 13:37 Sunny 77 25 57 14 51 51 SW 18 30 30 1016 10 16.0934 N/A
1:57 pm 13:57 Sunny 77 25 57 14 51 51 WSW 13 20 30 1016 10 16.0934 N/A
2:17 pm 14:17 Partly Cloudy 77 25 57 14 51 51 SW 13 20 30 1016 10 16.0934 N/A
2:37 pm 14:37 Mostly Cloudy 77 25 57 14 51 51 SW 16 26 30 1016 10 16.0934 N/A
2:57 pm 14:57 Mostly Cloudy 79 26 57 14 48 48 SSW 14 22 30 1016 10 16.0934 N/A
3:17 pm 15:17 Partly Cloudy 77 25 57 14 51 51 SW 14 22 29.97 1015 10 16.0934 N/A
3:37 pm 15:37 Sunny 77 25 57 14 51 51 SW 15 24 29.97 1015 10 16.0934 N/A
3:57 pm 15:57 Sunny 77 25 57 14 51 51 SW 15 24 29.97 1015 10 16.0934 N/A
4:17 pm 16:17 Sunny 77 25 57 14 51 51 SW 14 22 29.97 1015 10 16.0934 N/A
4:37 pm 16:37 Sunny 77 25 57 14 51 51 SSW 15 24 29.97 1015 10 16.0934 N/A
4:57 pm 16:57 Sunny 77 25 57 14 51 51 SW 14 22 29.97 1015 10 16.0934 N/A
5:17 pm 17:17 Sunny 77 25 57 14 51 51 SW 12 19 29.97 1015 10 16.0934 N/A
5:37 pm 17:37 Sunny 75 24 57 14 54 54 SW 16 26 29.97 1015 10 16.0934 N/A
5:57 pm 17:57 Sunny 75 24 57 14 54 54 SW 14 22 29.97 1015 10 16.0934 N/A
6:17 pm 18:17 Sunny 73 23 55 13 53 53 SW 9 15 29.97 1015 10 16.0934 N/A
6:37 pm 18:37 Sunny 73 23 55 13 53 53 SW 10 17 29.97 1015 10 16.0934 N/A
6:57 pm 18:57 Clear 72 22 55 13 57 57 SSW 7 11 29.97 1015 10 16.0934 N/A
7:17 pm 19:17 Clear 72 22 55 13 57 57 SSW 10 17 29.97 1015 10 16.0934 N/A
7:37 pm 19:37 Clear 70 21 55 13 60 60 SSW 8 13 30 1016 10 16.0934 N/A
7:57 pm 19:57 Clear 70 21 55 13 60 60 SSW 8 13 30 1016 10 16.0934 N/A
8:17 pm 20:17 Clear 70 21 55 13 60 60 SSW 9 15 30 1016 10 16.0934 N/A
8:37 pm 20:37 Clear 70 21 55 13 60 60 SSW 10 17 30 1016 10 16.0934 N/A
8:57 pm 20:57 Clear 70 21 55 13 60 60 SSW 10 17 30 1016 10 16.0934 N/A
9:17 pm 21:17 Clear 70 21 55 13 60 60 SSW 10 17 30 1016 10 16.0934 N/A
9:37 pm 21:37 Clear 68 20 55 13 64 64 SSW 9 15 30 1016 10 16.0934 N/A
9:57 pm 21:57 Clear 68 20 55 13 64 64 SSW 9 15 30.03 1017 10 16.0934 N/A
10:17 pm 22:17 Clear 66 19 55 13 68 68 SSW 6 9 30.03 1017 10 16.0934 N/A
10:37 pm 22:37 Clear 66 19 55 13 68 68 SW 6 9 30.03 1017 10 16.0934 N/A
10:57 pm 22:57 Clear 66 19 55 13 68 68 SSW 3 6 30.03 1017 10 16.0934 N/A
11:17 pm 23:17 Clear 64 18 55 13 73 73 N N/A 30.03 1017 10 16.0934 N/A
11:37 pm 23:37 Clear 61 16 55 13 83 83 N N/A 30.03 1017 10 16.0934 N/A
11:57 pm 23:57 Clear 61 16 55 13 83 83 S 3 6 30.03 1017 10 16.0934 N/A

Powered by AerisWeather